History Data

Date (GMT-7:00) CPM ACPM uSv/h Latitude Longitude Altitude CO CO2 TVOC HCHO Air Pressure Temperature Humidity Type
2025-12-02 18:35:53 21 17.90 0.105000 41.649648 41.62752893 0 0 0 0 0 0 0 0 STD5.60
2025-12-02 18:30:48 21 18.90 0.105000 41.649648 41.62752893 0 0 0 0 0 0 0 0 STD5.60
2025-12-02 18:25:46 13 19.30 0.065000 41.649648 41.62752893 0 0 0 0 0 0 0 0 STD5.60
2025-12-02 18:20:44 28 18.60 0.140000 41.649648 41.62752893 0 0 0 0 0 0 0 0 STD5.60
2025-12-02 18:15:42 10 18.10 0.050000 41.649648 41.62752893 0 0 0 0 0 0 0 0 STD5.60
2025-12-02 18:10:41 13 18.70 0.065000 41.649648 41.62752893 0 0 0 0 0 0 0 0 STD5.60
2025-12-02 18:05:39 20 17.10 0.100000 41.649648 41.62752893 0 0 0 0 0 0 0 0 STD5.60
2025-12-02 18:00:37 13 15.60 0.065000 41.649648 41.62752893 0 0 0 0 0 0 0 0 STD5.60
2025-12-02 17:55:32 13 16.40 0.065000 41.649648 41.62752893 0 0 0 0 0 0 0 0 STD5.60
2025-12-02 17:50:30 20 17.10 0.100000 41.649648 41.62752893 0 0 0 0 0 0 0 0 STD5.60
2025-12-02 17:45:28 15 19.80 0.075000 41.649648 41.62752893 0 0 0 0 0 0 0 0 STD5.60
2025-12-02 17:40:26 22 18.80 0.110000 41.649648 41.62752893 0 0 0 0 0 0 0 0 STD5.60
2025-12-02 17:35:24 13 17.30 0.065000 41.649648 41.62752893 0 0 0 0 0 0 0 0 STD5.60
2025-12-02 17:30:22 20 19.10 0.100000 41.649648 41.62752893 0 0 0 0 0 0 0 0 STD5.60
2025-12-02 17:25:20 26 17.60 0.130000 41.649648 41.62752893 0 0 0 0 0 0 0 0 STD5.60
2025-12-02 17:20:17 9 17.20 0.045000 41.649648 41.62752893 0 0 0 0 0 0 0 0 STD5.60
2025-12-02 17:15:26 22 18.80 0.110000 41.649648 41.62752893 0 0 0 0 0 0 0 0 STD5.60
2025-12-02 17:10:13 26 18.80 0.130000 41.649648 41.62752893 0 0 0 0 0 0 0 0 STD5.60
2025-12-02 17:05:10 11 18.00 0.055000 41.649648 41.62752893 0 0 0 0 0 0 0 0 STD5.60
2025-12-02 17:00:06 18 17.60 0.090000 41.649648 41.62752893 0 0 0 0 0 0 0 0 STD5.60
2025-12-02 16:55:04 18 17.90 0.090000 41.649648 41.62752893 0 0 0 0 0 0 0 0 STD5.60
2025-12-02 16:50:02 17 18.10 0.085000 41.649648 41.62752893 0 0 0 0 0 0 0 0 STD5.60
2025-12-02 16:44:59 17 17.70 0.085000 41.649648 41.62752893 0 0 0 0 0 0 0 0 STD5.60
2025-12-02 16:39:57 19 18.60 0.095000 41.649648 41.62752893 0 0 0 0 0 0 0 0 STD5.60
2025-12-02 16:34:55 18 19.10 0.090000 41.649648 41.62752893 0 0 0 0 0 0 0 0 STD5.60
2025-12-02 16:29:53 21 19.10 0.105000 41.649648 41.62752893 0 0 0 0 0 0 0 0 STD5.60
2025-12-02 16:24:51 18 19.30 0.090000 41.649648 41.62752893 0 0 0 0 0 0 0 0 STD5.60
2025-12-02 16:19:49 16 19.30 0.080000 41.649648 41.62752893 0 0 0 0 0 0 0 0 STD5.60
2025-12-02 16:14:46 30 16.00 0.150000 41.649648 41.62752893 0 0 0 0 0 0 0 0 STD5.60
2025-12-02 16:09:44 15 15.30 0.075000 41.649648 41.62752893 0 0 0 0 0 0 0 0 STD5.60
2025-12-02 16:04:42 11 17.30 0.055000 41.649648 41.62752893 0 0 0 0 0 0 0 0 STD5.60
2025-12-02 15:59:38 9 17.40 0.045000 41.649648 41.62752893 0 0 0 0 0 0 0 0 STD5.60
2025-12-02 15:54:36 17 18.50 0.085000 41.649648 41.62752893 0 0 0 0 0 0 0 0 STD5.60
2025-12-02 15:49:35 22 19.50 0.110000 41.649648 41.62752893 0 0 0 0 0 0 0 0 STD5.60
2025-12-02 15:44:32 14 18.80 0.070000 41.649648 41.62752893 0 0 0 0 0 0 0 0 STD5.60
2025-12-02 15:39:31 17 19.00 0.085000 41.649648 41.62752893 0 0 0 0 0 0 0 0 STD5.60
2025-12-02 15:34:28 19 17.10 0.095000 41.649648 41.62752893 0 0 0 0 0 0 0 0 STD5.60
2025-12-02 15:29:26 21 17.00 0.105000 41.649648 41.62752893 0 0 0 0 0 0 0 0 STD5.60
2025-12-02 15:24:24 21 18.70 0.105000 41.649648 41.62752893 0 0 0 0 0 0 0 0 STD5.60
2025-12-02 15:19:22 17 18.70 0.085000 41.649648 41.62752893 0 0 0 0 0 0 0 0 STD5.60
2025-12-02 15:14:20 21 18.80 0.105000 41.649648 41.62752893 0 0 0 0 0 0 0 0 STD5.60
2025-12-02 15:09:18 18 17.30 0.090000 41.649648 41.62752893 0 0 0 0 0 0 0 0 STD5.60
2025-12-02 15:04:16 14 20.10 0.070000 41.649648 41.62752893 0 0 0 0 0 0 0 0 STD5.60
2025-12-02 14:59:17 21 20.10 0.105000 41.649648 41.62752893 0 0 0 0 0 0 0 0 STD5.60
2025-12-02 14:54:10 13 17.90 0.065000 41.649648 41.62752893 0 0 0 0 0 0 0 0 STD5.60
2025-12-02 14:49:08 14 18.10 0.070000 41.649648 41.62752893 0 0 0 0 0 0 0 0 STD5.60
2025-12-02 14:44:06 18 17.70 0.090000 41.649648 41.62752893 0 0 0 0 0 0 0 0 STD5.60
2025-12-02 14:39:04 15 17.10 0.075000 41.649648 41.62752893 0 0 0 0 0 0 0 0 STD5.60
2025-12-02 14:34:02 19 17.00 0.095000 41.649648 41.62752893 0 0 0 0 0 0 0 0 STD5.60
2025-12-02 14:29:00 23 18.70 0.115000 41.649648 41.62752893 0 0 0 0 0 0 0 0 STD5.60
2025-12-02 14:23:58 14 18.90 0.070000 41.649648 41.62752893 0 0 0 0 0 0 0 0 STD5.60
2025-12-02 14:18:56 16 15.70 0.080000 41.649648 41.62752893 0 0 0 0 0 0 0 0 STD5.60
2025-12-02 14:13:54 17 15.10 0.085000 41.649648 41.62752893 0 0 0 0 0 0 0 0 STD5.60
2025-12-02 14:08:53 19 16.90 0.095000 41.649648 41.62752893 0 0 0 0 0 0 0 0 STD5.60
2025-12-02 14:03:50 21 18.20 0.105000 41.649648 41.62752893 0 0 0 0 0 0 0 0 STD5.60
2025-12-02 13:58:46 19 17.30 0.095000 41.649648 41.62752893 0 0 0 0 0 0 0 0 STD5.60
2025-12-02 13:53:44 16 17.60 0.080000 41.649648 41.62752893 0 0 0 0 0 0 0 0 STD5.60
2025-12-02 13:48:42 13 19.70 0.065000 41.649648 41.62752893 0 0 0 0 0 0 0 0 STD5.60
2025-12-02 13:43:40 19 20.00 0.095000 41.649648 41.62752893 0 0 0 0 0 0 0 0 STD5.60
2025-12-02 13:38:37 22 21.10 0.110000 41.649648 41.62752893 0 0 0 0 0 0 0 0 STD5.60
2025-12-02 13:33:35 20 20.30 0.100000 41.649648 41.62752893 0 0 0 0 0 0 0 0 STD5.60
2025-12-02 13:28:33 18 18.20 0.090000 41.649648 41.62752893 0 0 0 0 0 0 0 0 STD5.60
2025-12-02 13:23:31 18 18.50 0.090000 41.649648 41.62752893 0 0 0 0 0 0 0 0 STD5.60
2025-12-02 13:18:29 9 17.40 0.045000 41.649648 41.62752893 0 0 0 0 0 0 0 0 STD5.60
2025-12-02 13:13:28 22 16.90 0.110000 41.649648 41.62752893 0 0 0 0 0 0 0 0 STD5.60
2025-12-02 13:08:25 18 17.70 0.090000 41.649648 41.62752893 0 0 0 0 0 0 0 0 STD5.60
2025-12-02 13:03:23 15 18.40 0.075000 41.649648 41.62752893 0 0 0 0 0 0 0 0 STD5.60
2025-12-02 12:58:19 21 18.10 0.105000 41.649648 41.62752893 0 0 0 0 0 0 0 0 STD5.60
2025-12-02 12:53:17 15 17.60 0.075000 41.649648 41.62752893 0 0 0 0 0 0 0 0 STD5.60
2025-12-02 12:48:15 20 17.50 0.100000 41.649648 41.62752893 0 0 0 0 0 0 0 0 STD5.60
2025-12-02 12:43:13 13 17.30 0.065000 41.649648 41.62752893 0 0 0 0 0 0 0 0 STD5.60
2025-12-02 12:38:14 17 17.80 0.085000 41.649648 41.62752893 0 0 0 0 0 0 0 0 STD5.60
2025-12-02 12:33:09 15 17.20 0.075000 41.649648 41.62752893 0 0 0 0 0 0 0 0 STD5.60
2025-12-02 12:28:07 20 17.40 0.100000 41.649648 41.62752893 0 0 0 0 0 0 0 0 STD5.60
2025-12-02 12:23:04 15 18.10 0.075000 41.649648 41.62752893 0 0 0 0 0 0 0 0 STD5.60
2025-12-02 12:18:03 15 16.50 0.075000 41.649648 41.62752893 0 0 0 0 0 0 0 0 STD5.60
2025-12-02 12:13:00 24 15.30 0.120000 41.649648 41.62752893 0 0 0 0 0 0 0 0 STD5.60
2025-12-02 12:07:58 14 16.70 0.070000 41.649648 41.62752893 0 0 0 0 0 0 0 0 STD5.60
2025-12-02 12:02:54 17 16.40 0.085000 41.649648 41.62752893 0 0 0 0 0 0 0 0 STD5.60
2025-12-02 11:57:52 11 15.60 0.055000 41.649648 41.62752893 0 0 0 0 0 0 0 0 STD5.60
2025-12-02 11:52:50 19 15.10 0.095000 41.649648 41.62752893 0 0 0 0 0 0 0 0 STD5.60
2025-12-02 11:47:48 13 14.10 0.065000 41.649648 41.62752893 0 0 0 0 0 0 0 0 STD5.60
2025-12-02 11:42:46 13 15.90 0.065000 41.649648 41.62752893 0 0 0 0 0 0 0 0 STD5.60
2025-12-02 11:37:43 16 18.10 0.080000 41.649648 41.62752893 0 0 0 0 0 0 0 0 STD5.60
2025-12-02 11:32:41 15 17.40 0.075000 41.649648 41.62752893 0 0 0 0 0 0 0 0 STD5.60
2025-12-02 11:27:39 20 16.50 0.100000 41.649648 41.62752893 0 0 0 0 0 0 0 0 STD5.60
2025-12-02 11:22:37 29 17.90 0.145000 41.649648 41.62752893 0 0 0 0 0 0 0 0 STD5.60
2025-12-02 11:17:35 18 20.40 0.090000 41.649648 41.62752893 0 0 0 0 0 0 0 0 STD5.60
2025-12-02 11:12:33 28 19.70 0.140000 41.649648 41.62752893 0 0 0 0 0 0 0 0 STD5.60
2025-12-02 11:07:31 23 9.00 0.115000 41.649648 41.62752893 0 0 0 0 0 0 0 0 STD5.60
2025-12-02 11:02:27 16 19.10 0.080000 41.649648 41.62752893 0 0 0 0 0 0 0 0 STD5.60
2025-12-02 10:57:25 32 19.20 0.160000 41.649648 41.62752893 0 0 0 0 0 0 0 0 STD5.60
2025-12-02 10:52:23 15 20.30 0.075000 41.649648 41.62752893 0 0 0 0 0 0 0 0 STD5.60
2025-12-02 10:47:21 21 19.30 0.105000 41.649648 41.62752893 0 0 0 0 0 0 0 0 STD5.60
2025-12-02 10:42:19 15 17.80 0.075000 41.649648 41.62752893 0 0 0 0 0 0 0 0 STD5.60
2025-12-02 10:37:17 20 17.90 0.100000 41.649648 41.62752893 0 0 0 0 0 0 0 0 STD5.60
2025-12-02 10:32:14 24 16.80 0.120000 41.649648 41.62752893 0 0 0 0 0 0 0 0 STD5.60
2025-12-02 10:27:13 18 16.90 0.090000 41.649648 41.62752893 0 0 0 0 0 0 0 0 STD5.60
2025-12-02 10:22:10 18 15.80 0.090000 41.649648 41.62752893 0 0 0 0 0 0 0 0 STD5.60
2025-12-02 10:17:08 12 15.40 0.060000 41.649648 41.62752893 0 0 0 0 0 0 0 0 STD5.60
2025-12-02 10:12:06 21 16.20 0.105000 41.649648 41.62752893 0 0 0 0 0 0 0 0 STD5.60
2025-12-02 10:07:03 18 16.70 0.090000 41.649648 41.62752893 0 0 0 0 0 0 0 0 STD5.60
2025-12-02 10:01:59 17 18.40 0.085000 41.649648 41.62752893 0 0 0 0 0 0 0 0 STD5.60
2025-12-02 09:56:57 18 19.80 0.090000 41.649648 41.62752893 0 0 0 0 0 0 0 0 STD5.60
2025-12-02 09:51:56 26 19.20 0.130000 41.649648 41.62752893 0 0 0 0 0 0 0 0 STD5.60
2025-12-02 09:46:53 17 16.60 0.085000 41.649648 41.62752893 0 0 0 0 0 0 0 0 STD5.60
2025-12-02 09:41:51 21 18.80 0.105000 41.649648 41.62752893 0 0 0 0 0 0 0 0 STD5.60
2025-12-02 09:36:49 24 20.50 0.120000 41.649648 41.62752893 0 0 0 0 0 0 0 0 STD5.60
2025-12-02 09:31:47 14 19.30 0.070000 41.649648 41.62752893 0 0 0 0 0 0 0 0 STD5.60
2025-12-02 09:26:45 18 17.00 0.090000 41.649648 41.62752893 0 0 0 0 0 0 0 0 STD5.60
2025-12-02 09:21:43 14 15.60 0.070000 41.649648 41.62752893 0 0 0 0 0 0 0 0 STD5.60
2025-12-02 09:16:41 12 17.30 0.060000 41.649648 41.62752893 0 0 0 0 0 0 0 0 STD5.60
2025-12-02 09:11:39 13 19.90 0.065000 41.649648 41.62752893 0 0 0 0 0 0 0 0 STD5.60
2025-12-02 09:06:37 18 18.40 0.090000 41.649648 41.62752893 0 0 0 0 0 0 0 0 STD5.60
2025-12-02 09:01:32 14 16.80 0.070000 41.649648 41.62752893 0 0 0 0 0 0 0 0 STD5.60
2025-12-02 08:56:30 19 19.00 0.095000 41.649648 41.62752893 0 0 0 0 0 0 0 0 STD5.60
2025-12-02 08:51:27 14 18.40 0.070000 41.649648 41.62752893 0 0 0 0 0 0 0 0 STD5.60
2025-12-02 08:46:25 18 17.20 0.090000 41.649648 41.62752893 0 0 0 0 0 0 0 0 STD5.60
2025-12-02 08:41:23 17 17.80 0.085000 41.649648 41.62752893 0 0 0 0 0 0 0 0 STD5.60
2025-12-02 08:36:21 15 16.60 0.075000 41.649648 41.62752893 0 0 0 0 0 0 0 0 STD5.60
2025-12-02 08:31:19 15 17.60 0.075000 41.649648 41.62752893 0 0 0 0 0 0 0 0 STD5.60
2025-12-02 08:26:17 22 18.50 0.110000 41.649648 41.62752893 0 0 0 0 0 0 0 0 STD5.60
2025-12-02 08:21:15 26 18.00 0.130000 41.649648 41.62752893 0 0 0 0 0 0 0 0 STD5.60
2025-12-02 08:16:13 17 17.10 0.085000 41.649648 41.62752893 0 0 0 0 0 0 0 0 STD5.60
2025-12-02 08:11:11 11 16.60 0.055000 41.649648 41.62752893 0 0 0 0 0 0 0 0 STD5.60
2025-12-02 08:06:08 17 18.90 0.085000 41.649648 41.62752893 0 0 0 0 0 0 0 0 STD5.60
2025-12-02 08:01:05 20 18.80 0.100000 41.649648 41.62752893 0 0 0 0 0 0 0 0 STD5.60
2025-12-02 07:56:02 16 17.70 0.080000 41.649648 41.62752893 0 0 0 0 0 0 0 0 STD5.60
2025-12-02 07:50:59 18 17.00 0.090000 41.649648 41.62752893 0 0 0 0 0 0 0 0 STD5.60
2025-12-02 07:45:57 16 15.10 0.080000 41.649648 41.62752893 0 0 0 0 0 0 0 0 STD5.60
2025-12-02 07:40:55 14 16.90 0.070000 41.649648 41.62752893 0 0 0 0 0 0 0 0 STD5.60
2025-12-02 07:35:54 25 17.90 0.125000 41.649648 41.62752893 0 0 0 0 0 0 0 0 STD5.60
2025-12-02 07:30:51 15 16.90 0.075000 41.649648 41.62752893 0 0 0 0 0 0 0 0 STD5.60
2025-12-02 07:25:49 13 17.90 0.065000 41.649648 41.62752893 0 0 0 0 0 0 0 0 STD5.60
2025-12-02 07:20:47 16 19.40 0.080000 41.649648 41.62752893 0 0 0 0 0 0 0 0 STD5.60
2025-12-02 07:15:45 21 19.90 0.105000 41.649648 41.62752893 0 0 0 0 0 0 0 0 STD5.60
2025-12-02 07:10:43 16 18.40 0.080000 41.649648 41.62752893 0 0 0 0 0 0 0 0 STD5.60
2025-12-02 07:05:41 15 17.30 0.075000 41.649648 41.62752893 0 0 0 0 0 0 0 0 STD5.60
2025-12-02 07:00:37 18 15.30 0.090000 41.649648 41.62752893 0 0 0 0 0 0 0 0 STD5.60
2025-12-02 06:55:34 17 15.40 0.085000 41.649648 41.62752893 0 0 0 0 0 0 0 0 STD5.60
2025-12-02 06:50:32 17 18.70 0.085000 41.649648 41.62752893 0 0 0 0 0 0 0 0 STD5.60
2025-12-02 06:45:30 16 19.10 0.080000 41.649648 41.62752893 0 0 0 0 0 0 0 0 STD5.60
2025-12-02 06:40:28 20 16.80 0.100000 41.649648 41.62752893 0 0 0 0 0 0 0 0 STD5.60
2025-12-02 06:35:26 16 18.00 0.080000 41.649648 41.62752893 0 0 0 0 0 0 0 0 STD5.60
2025-12-02 06:30:24 22 17.40 0.110000 41.649648 41.62752893 0 0 0 0 0 0 0 0 STD5.60
2025-12-02 06:25:22 11 16.10 0.055000 41.649648 41.62752893 0 0 0 0 0 0 0 0 STD5.60
2025-12-02 06:20:20 9 16.90 0.045000 41.649648 41.62752893 0 0 0 0 0 0 0 0 STD5.60
2025-12-02 06:15:17 14 16.20 0.070000 41.649648 41.62752893 0 0 0 0 0 0 0 0 STD5.60
2025-12-02 06:10:16 14 16.00 0.070000 41.649648 41.62752893 0 0 0 0 0 0 0 0 STD5.60
2025-12-02 06:05:13 14 18.10 0.070000 41.649648 41.62752893 0 0 0 0 0 0 0 0 STD5.60
2025-12-02 06:00:12 19 18.10 0.095000 41.649648 41.62752893 0 0 0 0 0 0 0 0 STD5.60
2025-12-02 05:55:07 19 17.50 0.095000 41.649648 41.62752893 0 0 0 0 0 0 0 0 STD5.60
2025-12-02 05:50:05 24 18.60 0.120000 41.649648 41.62752893 0 0 0 0 0 0 0 0 STD5.60
2025-12-02 05:45:04 12 18.10 0.060000 41.649648 41.62752893 0 0 0 0 0 0 0 0 STD5.60
2025-12-02 05:40:02 15 18.10 0.075000 41.649648 41.62752893 0 0 0 0 0 0 0 0 STD5.60
2025-12-02 05:35:00 17 19.00 0.085000 41.649648 41.62752893 0 0 0 0 0 0 0 0 STD5.60
2025-12-02 05:29:57 18 19.00 0.090000 41.649648 41.62752893 0 0 0 0 0 0 0 0 STD5.60
2025-12-02 05:24:55 13 19.90 0.065000 41.649648 41.62752893 0 0 0 0 0 0 0 0 STD5.60
2025-12-02 05:19:53 20 20.90 0.100000 41.649648 41.62752893 0 0 0 0 0 0 0 0 STD5.60
2025-12-02 05:14:51 24 18.10 0.120000 41.649648 41.62752893 0 0 0 0 0 0 0 0 STD5.60
2025-12-02 05:09:49 17 16.70 0.085000 41.649648 41.62752893 0 0 0 0 0 0 0 0 STD5.60
2025-12-02 05:04:47 13 18.20 0.065000 41.649648 41.62752893 0 0 0 0 0 0 0 0 STD5.60
2025-12-02 04:59:42 21 19.10 0.105000 41.649648 41.62752893 0 0 0 0 0 0 0 0 STD5.60
2025-12-02 04:54:40 17 18.90 0.085000 41.649648 41.62752893 0 0 0 0 0 0 0 0 STD5.60
2025-12-02 04:49:38 21 19.40 0.105000 41.649648 41.62752893 0 0 0 0 0 0 0 0 STD5.60
2025-12-02 04:44:36 20 19.10 0.100000 41.649648 41.62752893 0 0 0 0 0 0 0 0 STD5.60
2025-12-02 04:39:35 25 20.00 0.125000 41.649648 41.62752893 0 0 0 0 0 0 0 0 STD5.60
2025-12-02 04:34:32 30 20.30 0.150000 41.649648 41.62752893 0 0 0 0 0 0 0 0 STD5.60
2025-12-02 04:29:30 21 18.10 0.105000 41.649648 41.62752893 0 0 0 0 0 0 0 0 STD5.60
2025-12-02 04:24:28 18 17.90 0.090000 41.649648 41.62752893 0 0 0 0 0 0 0 0 STD5.60
2025-12-02 04:19:26 11 17.80 0.055000 41.649648 41.62752893 0 0 0 0 0 0 0 0 STD5.60
2025-12-02 04:14:23 16 16.10 0.080000 41.649648 41.62752893 0 0 0 0 0 0 0 0 STD5.60
2025-12-02 04:09:21 12 17.10 0.060000 41.649648 41.62752893 0 0 0 0 0 0 0 0 STD5.60
2025-12-02 04:04:19 25 19.60 0.125000 41.649648 41.62752893 0 0 0 0 0 0 0 0 STD5.60
2025-12-02 03:59:15 13 19.10 0.065000 41.649648 41.62752893 0 0 0 0 0 0 0 0 STD5.60
2025-12-02 03:54:14 19 18.10 0.095000 41.649648 41.62752893 0 0 0 0 0 0 0 0 STD5.60
2025-12-02 03:49:11 17 18.10 0.085000 41.649648 41.62752893 0 0 0 0 0 0 0 0 STD5.60
2025-12-02 03:44:09 23 17.10 0.115000 41.649648 41.62752893 0 0 0 0 0 0 0 0 STD5.60
2025-12-02 03:39:07 16 15.00 0.080000 41.649648 41.62752893 0 0 0 0 0 0 0 0 STD5.60
2025-12-02 03:34:05 16 16.00 0.080000 41.649648 41.62752893 0 0 0 0 0 0 0 0 STD5.60
2025-12-02 03:29:03 15 17.90 0.075000 41.649648 41.62752893 0 0 0 0 0 0 0 0 STD5.60
2025-12-02 03:24:02 24 18.90 0.120000 41.649648 41.62752893 0 0 0 0 0 0 0 0 STD5.60
2025-12-02 03:18:59 16 18.60 0.080000 41.649648 41.62752893 0 0 0 0 0 0 0 0 STD5.60
2025-12-02 03:13:57 16 18.40 0.080000 41.649648 41.62752893 0 0 0 0 0 0 0 0 STD5.60
2025-12-02 03:08:55 19 20.00 0.095000 41.649648 41.62752893 0 0 0 0 0 0 0 0 STD5.60
2025-12-02 03:03:53 20 19.20 0.100000 41.649648 41.62752893 0 0 0 0 0 0 0 0 STD5.60
2025-12-02 02:58:49 16 16.50 0.080000 41.649648 41.62752893 0 0 0 0 0 0 0 0 STD5.60
2025-12-02 02:53:47 10 14.90 0.050000 41.649648 41.62752893 0 0 0 0 0 0 0 0 STD5.60
2025-12-02 02:48:45 12 15.40 0.060000 41.649648 41.62752893 0 0 0 0 0 0 0 0 STD5.60
2025-12-02 02:43:43 16 16.80 0.080000 41.649648 41.62752893 0 0 0 0 0 0 0 0 STD5.60
2025-12-02 02:38:41 12 18.40 0.060000 41.649648 41.62752893 0 0 0 0 0 0 0 0 STD5.60
2025-12-02 02:33:39 20 18.20 0.100000 41.649648 41.62752893 0 0 0 0 0 0 0 0 STD5.60
2025-12-02 02:28:37 16 17.10 0.080000 41.649648 41.62752893 0 0 0 0 0 0 0 0 STD5.60
2025-12-02 02:23:35 18 18.00 0.090000 41.649648 41.62752893 0 0 0 0 0 0 0 0 STD5.60
2025-12-02 02:18:33 17 19.70 0.085000 41.649648 41.62752893 0 0 0 0 0 0 0 0 STD5.60
2025-12-02 02:13:31 25 17.40 0.125000 41.649648 41.62752893 0 0 0 0 0 0 0 0 STD5.60
2025-12-02 02:08:29 16 17.30 0.080000 41.649648 41.62752893 0 0 0 0 0 0 0 0 STD5.60
2025-12-02 02:03:26 23 18.90 0.115000 41.649648 41.62752893 0 0 0 0 0 0 0 0 STD5.60
2025-12-02 01:58:22 18 17.80 0.090000 41.649648 41.62752893 0 0 0 0 0 0 0 0 STD5.60
2025-12-02 01:53:21 16 17.40 0.080000 41.649648 41.62752893 0 0 0 0 0 0 0 0 STD5.60
2025-12-02 01:48:18 26 17.30 0.130000 41.649648 41.62752893 0 0 0 0 0 0 0 0 STD5.60
2025-12-02 01:43:16 20 19.50 0.100000 41.649648 41.62752893 0 0 0 0 0 0 0 0 STD5.60
2025-12-02 01:38:14 19 18.50 0.095000 41.649648 41.62752893 0 0 0 0 0 0 0 0 STD5.60
2025-12-02 01:33:12 16 17.00 0.080000 41.649648 41.62752893 0 0 0 0 0 0 0 0 STD5.60
2025-12-02 01:28:10 14 18.40 0.070000 41.649648 41.62752893 0 0 0 0 0 0 0 0 STD5.60
2025-12-02 01:23:09 23 17.50 0.115000 41.649648 41.62752893 0 0 0 0 0 0 0 0 STD5.60
2025-12-02 01:18:06 18 16.90 0.090000 41.649648 41.62752893 0 0 0 0 0 0 0 0 STD5.60
2025-12-02 01:13:03 8 17.40 0.040000 41.649648 41.62752893 0 0 0 0 0 0 0 0 STD5.60
2025-12-02 01:08:02 21 17.30 0.105000 41.649648 41.62752893 0 0 0 0 0 0 0 0 STD5.60
2025-12-02 01:03:00 19 17.80 0.095000 41.649648 41.62752893 0 0 0 0 0 0 0 0 STD5.60
2025-12-02 00:57:55 13 19.40 0.065000 41.649648 41.62752893 0 0 0 0 0 0 0 0 STD5.60
2025-12-02 00:52:54 20 18.30 0.100000 41.649648 41.62752893 0 0 0 0 0 0 0 0 STD5.60
2025-12-02 00:47:51 13 17.00 0.065000 41.649648 41.62752893 0 0 0 0 0 0 0 0 STD5.60
2025-12-02 00:42:49 12 18.20 0.060000 41.649648 41.62752893 0 0 0 0 0 0 0 0 STD5.60
2025-12-02 00:37:47 11 18.10 0.055000 41.649648 41.62752893 0 0 0 0 0 0 0 0 STD5.60
2025-12-02 00:32:45 20 19.00 0.100000 41.649648 41.62752893 0 0 0 0 0 0 0 0 STD5.60
2025-12-02 00:27:43 20 20.50 0.100000 41.649648 41.62752893 0 0 0 0 0 0 0 0 STD5.60
2025-12-02 00:22:41 20 19.30 0.100000 41.649648 41.62752893 0 0 0 0 0 0 0 0 STD5.60
2025-12-02 00:17:39 19 17.70 0.095000 41.649648 41.62752893 0 0 0 0 0 0 0 0 STD5.60
2025-12-02 00:12:37 18 16.70 0.090000 41.649648 41.62752893 0 0 0 0 0 0 0 0 STD5.60
2025-12-02 00:07:35 16 17.50 0.080000 41.649648 41.62752893 0 0 0 0 0 0 0 0 STD5.60
2025-12-02 00:02:33 18 18.40 0.090000 41.649648 41.62752893 0 0 0 0 0 0 0 0 STD5.60
2025-12-01 23:57:28 22 18.60 0.110000 41.649648 41.62752893 0 0 0 0 0 0 0 0 STD5.60
2025-12-01 23:52:26 7 18.00 0.035000 41.649648 41.62752893 0 0 0 0 0 0 0 0 STD5.60
2025-12-01 23:47:23 18 17.20 0.090000 41.649648 41.62752893 0 0 0 0 0 0 0 0 STD5.60
2025-12-01 23:42:21 15 16.50 0.075000 41.649648 41.62752893 0 0 0 0 0 0 0 0 STD5.60
2025-12-01 23:37:19 17 17.30 0.085000 41.649648 41.62752893 0 0 0 0 0 0 0 0 STD5.60
2025-12-01 23:32:17 19 17.40 0.095000 41.649648 41.62752893 0 0 0 0 0 0 0 0 STD5.60
2025-12-01 23:27:15 21 19.50 0.105000 41.649648 41.62752893 0 0 0 0 0 0 0 0 STD5.60
2025-12-01 23:22:14 28 19.30 0.140000 41.649648 41.62752893 0 0 0 0 0 0 0 0 STD5.60
2025-12-01 23:17:11 17 16.40 0.085000 41.649648 41.62752893 0 0 0 0 0 0 0 0 STD5.60
2025-12-01 23:12:09 14 17.00 0.070000 41.649648 41.62752893 0 0 0 0 0 0 0 0 STD5.60
2025-12-01 23:07:07 13 19.00 0.065000 41.649648 41.62752893 0 0 0 0 0 0 0 0 STD5.60
2025-12-01 23:02:05 21 20.00 0.105000 41.649648 41.62752893 0 0 0 0 0 0 0 0 STD5.60
2025-12-01 22:57:00 17 17.60 0.085000 41.649648 41.62752893 0 0 0 0 0 0 0 0 STD5.60
2025-12-01 22:51:58 12 19.20 0.060000 41.649648 41.62752893 0 0 0 0 0 0 0 0 STD5.60
2025-12-01 22:46:56 24 19.70 0.120000 41.649648 41.62752893 0 0 0 0 0 0 0 0 STD5.60
2025-12-01 22:41:54 19 19.60 0.095000 41.649648 41.62752893 0 0 0 0 0 0 0 0 STD5.60
2025-12-01 22:36:52 20 19.30 0.100000 41.649648 41.62752893 0 0 0 0 0 0 0 0 STD5.60
2025-12-01 22:31:50 13 17.30 0.065000 41.649648 41.62752893 0 0 0 0 0 0 0 0 STD5.60
2025-12-01 22:26:47 21 17.00 0.105000 41.649648 41.62752893 0 0 0 0 0 0 0 0 STD5.60
2025-12-01 22:21:45 18 16.70 0.090000 41.649648 41.62752893 0 0 0 0 0 0 0 0 STD5.60
2025-12-01 22:16:43 28 18.10 0.140000 41.649648 41.62752893 0 0 0 0 0 0 0 0 STD5.60
2025-12-01 22:11:42 18 18.20 0.090000 41.649648 41.62752893 0 0 0 0 0 0 0 0 STD5.60
2025-12-01 22:06:40 14 17.10 0.070000 41.649648 41.62752893 0 0 0 0 0 0 0 0 STD5.60
2025-12-01 22:01:37 19 18.50 0.095000 41.649648 41.62752893 0 0 0 0 0 0 0 0 STD5.60
2025-12-01 21:56:33 24 18.80 0.120000 41.649648 41.62752893 0 0 0 0 0 0 0 0 STD5.60
2025-12-01 21:51:31 19 18.70 0.095000 41.649648 41.62752893 0 0 0 0 0 0 0 0 STD5.60
2025-12-01 21:46:29 17 17.00 0.085000 41.649648 41.62752893 0 0 0 0 0 0 0 0 STD5.60
2025-12-01 21:41:27 20 17.60 0.100000 41.649648 41.62752893 0 0 0 0 0 0 0 0 STD5.60
2025-12-01 21:36:26 22 18.40 0.110000 41.649648 41.62752893 0 0 0 0 0 0 0 0 STD5.60
2025-12-01 21:31:23 19 16.60 0.095000 41.649648 41.62752893 0 0 0 0 0 0 0 0 STD5.60
2025-12-01 21:26:21 13 16.50 0.065000 41.649648 41.62752893 0 0 0 0 0 0 0 0 STD5.60
2025-12-01 21:21:19 28 19.60 0.140000 41.649648 41.62752893 0 0 0 0 0 0 0 0 STD5.60
2025-12-01 21:16:18 23 18.80 0.115000 41.649648 41.62752893 0 0 0 0 0 0 0 0 STD5.60
2025-12-01 21:11:15 15 16.90 0.075000 41.649648 41.62752893 0 0 0 0 0 0 0 0 STD5.60
2025-12-01 21:06:14 23 18.00 0.115000 41.649648 41.62752893 0 0 0 0 0 0 0 0 STD5.60
2025-12-01 21:01:11 21 19.00 0.105000 41.649648 41.62752893 0 0 0 0 0 0 0 0 STD5.60
2025-12-01 20:56:07 16 20.20 0.080000 41.649648 41.62752893 0 0 0 0 0 0 0 0 STD5.60
2025-12-01 20:51:05 24 19.30 0.120000 41.649648 41.62752893 0 0 0 0 0 0 0 0 STD5.60
2025-12-01 20:46:03 17 17.80 0.085000 41.649648 41.62752893 0 0 0 0 0 0 0 0 STD5.60
2025-12-01 20:41:01 18 17.80 0.090000 41.649648 41.62752893 0 0 0 0 0 0 0 0 STD5.60
2025-12-01 20:35:59 22 20.30 0.110000 41.649648 41.62752893 0 0 0 0 0 0 0 0 STD5.60
2025-12-01 20:30:56 23 20.80 0.115000 41.649648 41.62752893 0 0 0 0 0 0 0 0 STD5.60
2025-12-01 20:25:54 14 17.70 0.070000 41.649648 41.62752893 0 0 0 0 0 0 0 0 STD5.60
2025-12-01 20:20:52 21 17.30 0.105000 41.649648 41.62752893 0 0 0 0 0 0 0 0 STD5.60
2025-12-01 20:15:50 20 17.00 0.100000 41.649648 41.62752893 0 0 0 0 0 0 0 0 STD5.60
2025-12-01 20:10:48 18 17.50 0.090000 41.649648 41.62752893 0 0 0 0 0 0 0 0 STD5.60
2025-12-01 20:05:46 21 17.70 0.105000 41.649648 41.62752893 0 0 0 0 0 0 0 0 STD5.60
2025-12-01 20:00:43 18 16.60 0.090000 41.649648 41.62752893 0 0 0 0 0 0 0 0 STD5.60
2025-12-01 19:55:39 16 17.90 0.080000 41.649648 41.62752893 0 0 0 0 0 0 0 0 STD5.60
2025-12-01 19:50:37 23 19.20 0.115000 41.649648 41.62752893 0 0 0 0 0 0 0 0 STD5.60
2025-12-01 19:45:35 23 17.70 0.115000 41.649648 41.62752893 0 0 0 0 0 0 0 0 STD5.60
2025-12-01 19:40:33 20 15.60 0.100000 41.649648 41.62752893 0 0 0 0 0 0 0 0 STD5.60
2025-12-01 19:35:31 20 16.00 0.100000 41.649648 41.62752893 0 0 0 0 0 0 0 0 STD5.60
2025-12-01 19:30:28 19 19.40 0.095000 41.649648 41.62752893 0 0 0 0 0 0 0 0 STD5.60
2025-12-01 19:25:26 31 20.60 0.155000 41.649648 41.62752893 0 0 0 0 0 0 0 0 STD5.60
2025-12-01 19:20:24 16 18.10 0.080000 41.649648 41.62752893 0 0 0 0 0 0 0 0 STD5.60
2025-12-01 19:15:23 16 15.60 0.080000 41.649648 41.62752893 0 0 0 0 0 0 0 0 STD5.60
2025-12-01 19:10:20 15 16.60 0.075000 41.649648 41.62752893 0 0 0 0 0 0 0 0 STD5.60
2025-12-01 19:05:18 19 18.40 0.095000 41.649648 41.62752893 0 0 0 0 0 0 0 0 STD5.60
2025-12-01 19:00:16 24 16.60 0.120000 41.649648 41.62752893 0 0 0 0 0 0 0 0 STD5.60
2025-12-01 18:55:12 15 17.10 0.075000 41.649648 41.62752893 0 0 0 0 0 0 0 0 STD5.60
2025-12-01 18:50:10 13 19.30 0.065000 41.649648 41.62752893 0 0 0 0 0 0 0 0 STD5.60
2025-12-01 18:45:08 23 18.80 0.115000 41.649648 41.62752893 0 0 0 0 0 0 0 0 STD5.60
2025-12-01 18:40:06 17 17.40 0.085000 41.649648 41.62752893 0 0 0 0 0 0 0 0 STD5.60
2025-12-01 18:35:04 15 18.10 0.075000 41.649648 41.62752893 0 0 0 0 0 0 0 0 STD5.60
2025-12-01 18:30:02 25 17.00 0.125000 41.649648 41.62752893 0 0 0 0 0 0 0 0 STD5.60
2025-12-01 18:24:59 14 15.20 0.070000 41.649648 41.62752893 0 0 0 0 0 0 0 0 STD5.60
2025-12-01 18:19:57 18 17.70 0.090000 41.649648 41.62752893 0 0 0 0 0 0 0 0 STD5.60
2025-12-01 18:14:54 20 19.30 0.100000 41.649648 41.62752893 0 0 0 0 0 0 0 0 STD5.60
2025-12-01 18:09:52 23 17.80 0.115000 41.649648 41.62752893 0 0 0 0 0 0 0 0 STD5.60
2025-12-01 18:04:52 14 16.50 0.070000 41.649648 41.62752893 0 0 0 0 0 0 0 0 STD5.60
2025-12-01 17:59:49 13 17.90 0.065000 41.649648 41.62752893 0 0 0 0 0 0 0 0 STD5.60
2025-12-01 17:54:44 16 19.90 0.080000 41.649648 41.62752893 0 0 0 0 0 0 0 0 STD5.60
2025-12-01 17:49:42 21 19.00 0.105000 41.649648 41.62752893 0 0 0 0 0 0 0 0 STD5.60
2025-12-01 17:44:40 19 17.40 0.095000 41.649648 41.62752893 0 0 0 0 0 0 0 0 STD5.60
2025-12-01 17:39:38 16 19.20 0.080000 41.649648 41.62752893 0 0 0 0 0 0 0 0 STD5.60
2025-12-01 17:34:36 22 20.10 0.110000 41.649648 41.62752893 0 0 0 0 0 0 0 0 STD5.60
2025-12-01 17:29:34 19 19.20 0.095000 41.649648 41.62752893 0 0 0 0 0 0 0 0 STD5.60
Geiger Counter World Map       A real time radiation map.     Copyright 2015 All rights reserved.